NEWFOUND LAKE DAM: From 09/04/2018 16:00 to 09/19/2018 04:00

Date STAGE [FT] FLOW [CFS] LAKE ELEVATION [FT] PRECIPITATION INCREMENT [IN] AIR TEMPERATURE [DEGF]
09/18/2018 22:00 5.02 -- 586.68 0.00 67.6
09/18/2018 21:00 5.02 116.9 586.69 0.00 68.9
09/18/2018 20:00 5.03 118.8 586.69 0.00 69.9
09/18/2018 19:00 5.03 118.8 586.69 0.00 72.0
09/18/2018 18:00 5.02 116.9 586.69 0.00 75.5
09/18/2018 17:00 5.02 116.9 586.70 0.00 78.5
09/18/2018 16:00 5.03 118.8 586.69 0.00 76.5
09/18/2018 15:00 5.02 116.9 586.70 0.00 75.1
09/18/2018 14:00 5.02 116.9 586.70 0.00 74.8
09/18/2018 13:00 5.03 118.8 586.69 0.00 71.4
09/18/2018 12:00 5.25 163.8 586.72 0.00 69.1
09/18/2018 11:00 4.32 20.1 586.71 0.11 68.0
09/18/2018 10:00 4.32 20.1 586.69 0.09 67.6
09/18/2018 09:00 4.32 20.1 586.71 0.23 67.0
09/18/2018 08:00 4.32 20.1 586.69 0.08 66.8
09/18/2018 07:00 4.32 20.1 586.70 0.01 66.4
09/18/2018 06:00 4.31 19.2 586.66 0.01 66.3
09/18/2018 05:00 4.31 19.2 586.67 0.00 66.8
09/18/2018 04:00 4.32 20.1 586.69 0.00 66.5
09/18/2018 03:00 4.31 19.2 586.66 0.00 66.7
09/18/2018 02:00 4.32 20.1 586.68 0.00 66.1
09/18/2018 01:00 4.32 20.1 586.68 0.00 65.7
09/18/2018 00:00 4.32 20.1 586.68 0.00 66.0
09/17/2018 23:00 4.32 20.1 586.68 0.00 66.1
09/17/2018 22:00 4.32 20.1 586.67 0.00 67.0
09/17/2018 21:00 4.32 20.1 586.67 0.00 69.0
09/17/2018 20:00 4.32 20.1 586.68 0.00 70.7
09/17/2018 19:00 4.32 20.1 586.68 0.00 74.1
09/17/2018 18:00 4.32 20.1 586.69 0.00 76.5
09/17/2018 17:00 4.32 20.1 586.67 0.00 79.9
09/17/2018 16:00 4.32 20.1 586.68 0.00 80.8
09/17/2018 15:00 4.32 20.1 586.70 0.00 81.9
09/17/2018 14:00 4.32 20.1 586.70 0.00 81.3
09/17/2018 13:00 4.32 20.1 586.68 0.00 78.2
09/17/2018 12:00 4.32 20.1 586.69 0.00 73.5
09/17/2018 11:00 4.32 20.1 586.69 0.00 69.7
09/17/2018 10:00 4.32 20.1 586.68 0.00 66.3
09/17/2018 09:00 4.31 19.2 586.68 0.00 65.7
09/17/2018 08:00 4.32 20.1 586.69 0.00 65.9
09/17/2018 07:00 4.31 19.2 586.68 0.00 66.4
09/17/2018 06:00 4.31 19.2 586.69 0.00 66.4
09/17/2018 05:00 4.32 20.1 586.68 0.00 66.3
09/17/2018 04:00 4.31 19.2 586.69 0.00 65.7
09/17/2018 03:00 4.32 20.1 586.70 0.00 66.2
09/17/2018 02:00 4.32 20.1 586.69 0.00 67.2
09/17/2018 01:00 4.32 20.1 586.69 0.00 67.2
09/17/2018 00:00 4.32 20.1 586.69 0.00 68.0
09/16/2018 23:00 4.32 20.1 586.69 0.00 68.8
09/16/2018 22:00 4.32 20.1 586.70 0.00 69.5
09/16/2018 21:00 4.32 20.1 586.69 0.00 70.9
09/16/2018 20:00 4.32 20.1 586.70 0.00 72.4
09/16/2018 19:00 4.32 20.1 586.70 0.00 75.3
09/16/2018 18:00 4.32 20.1 586.69 0.00 80.0
09/16/2018 17:00 4.32 20.1 586.70 0.00 83.5
09/16/2018 16:00 4.32 20.1 586.70 0.00 84.6
09/16/2018 15:00 4.32 20.1 586.69 0.00 83.4
09/16/2018 14:00 4.32 20.1 586.71 0.00 82.2
09/16/2018 13:00 4.31 19.2 586.68 0.00 79.2
09/16/2018 12:00 4.32 20.1 586.70 0.00 76.7
09/16/2018 11:00 4.32 20.1 586.71 0.00 68.5
09/16/2018 10:00 4.32 20.1 586.68 0.00 64.9
09/16/2018 09:00 4.31 19.2 586.68 0.00 63.1
09/16/2018 08:00 4.32 20.1 586.69 0.00 62.3
09/16/2018 07:00 4.32 20.1 586.70 0.00 62.5
09/16/2018 06:00 4.32 20.1 586.71 0.00 61.8
09/16/2018 05:00 4.32 20.1 586.70 0.00 62.3
09/16/2018 04:00 4.32 20.1 586.70 0.00 62.2
09/16/2018 03:00 4.31 19.2 586.68 0.00 61.5
09/16/2018 02:00 4.32 20.1 586.69 0.00 62.1
09/16/2018 01:00 4.32 20.1 586.70 0.00 62.8
09/16/2018 00:00 4.32 20.1 586.69 0.00 63.3
09/15/2018 23:00 4.32 20.1 586.70 0.00 64.2
09/15/2018 22:00 4.32 20.1 586.70 0.00 65.4
09/15/2018 21:00 4.32 20.1 586.70 0.00 66.5
09/15/2018 20:00 4.32 20.1 586.70 0.00 68.8
09/15/2018 19:00 4.32 20.1 586.70 0.00 71.8
09/15/2018 18:00 4.32 20.1 586.71 0.00 75.7
09/15/2018 17:00 4.32 20.1 586.70 0.00 79.0
09/15/2018 16:00 4.32 20.1 586.70 0.00 80.9
09/15/2018 15:00 4.32 20.1 586.71 0.00 79.6
09/15/2018 14:00 4.31 19.2 586.70 0.00 77.3
09/15/2018 13:00 4.31 19.2 586.70 0.00 74.1
09/15/2018 12:00 4.32 20.1 586.70 0.00 67.5
09/15/2018 11:00 4.32 20.1 586.71 0.00 63.9
09/15/2018 10:00 4.32 20.1 586.70 0.00 62.8
09/15/2018 09:00 4.31 19.2 586.69 0.00 62.1
09/15/2018 08:00 4.31 19.2 586.71 0.00 62.2
09/15/2018 07:00 4.31 19.2 586.71 0.00 62.5
09/15/2018 06:00 4.31 19.2 586.70 0.00 62.2
09/15/2018 05:00 4.32 20.1 586.70 0.00 62.3
09/15/2018 04:00 4.32 20.1 586.71 0.00 62.0
09/15/2018 03:00 4.32 20.1 586.70 0.00 61.8
09/15/2018 02:00 4.32 20.1 586.71 0.00 62.0
09/15/2018 01:00 4.32 20.1 586.71 0.00 60.7
09/15/2018 00:00 4.32 20.1 586.71 0.00 61.7
09/14/2018 23:00 4.31 19.2 586.70 0.00 61.9
09/14/2018 22:00 4.32 20.1 586.71 0.00 62.6
09/14/2018 21:00 4.31 19.2 586.71 0.00 64.0
09/14/2018 20:00 4.32 20.1 586.71 0.00 67.1
09/14/2018 19:00 4.32 20.1 586.71 0.00 70.5
09/14/2018 18:00 4.32 20.1 586.72 0.00 75.7
09/14/2018 17:00 4.32 20.1 586.70 0.00 77.1
09/14/2018 16:00 4.31 19.2 586.71 0.00 76.9
09/14/2018 15:00 4.32 20.1 586.71 0.00 76.8
09/14/2018 14:00 4.32 20.1 586.72 0.00 75.0
09/14/2018 13:00 4.58 47.7 586.71 0.00 75.2
09/14/2018 12:00 4.58 47.7 586.72 0.00 70.5
09/14/2018 11:00 4.58 47.7 586.70 0.00 63.6
09/14/2018 10:00 4.58 47.7 586.70 0.00 61.7
09/14/2018 09:00 4.58 47.7 586.72 0.00 61.3
09/14/2018 08:00 4.58 47.7 586.71 0.00 61.5
09/14/2018 07:00 4.58 47.7 586.72 0.00 61.9
09/14/2018 06:00 4.58 47.7 586.71 0.00 62.0
09/14/2018 05:00 4.58 47.7 586.71 0.00 63.0
09/14/2018 04:00 4.58 47.7 586.72 0.00 63.1
09/14/2018 03:00 4.58 47.7 586.72 0.00 63.5
09/14/2018 02:00 4.58 47.7 586.72 0.00 63.8
09/14/2018 01:00 4.58 47.7 586.72 0.00 63.8
09/14/2018 00:00 4.58 47.7 586.72 0.00 63.5
09/13/2018 23:00 4.58 47.7 586.72 0.00 64.4
09/13/2018 22:00 4.58 47.7 586.72 0.00 65.7
09/13/2018 21:00 4.58 47.7 586.72 0.00 67.1
09/13/2018 20:00 4.58 47.7 586.72 0.00 69.2
09/13/2018 19:00 4.57 46.5 586.73 0.00 71.0
09/13/2018 18:00 4.58 47.7 586.74 0.00 75.7
09/13/2018 17:00 4.58 47.7 586.72 0.00 78.0
09/13/2018 16:00 4.58 47.7 586.73 0.00 76.9
09/13/2018 15:00 4.58 47.7 586.73 0.00 76.6
09/13/2018 14:00 4.58 47.7 586.73 0.00 74.9
09/13/2018 13:00 4.58 47.7 586.73 0.00 72.5
09/13/2018 12:00 4.58 47.7 586.73 0.00 73.0
09/13/2018 11:00 4.58 47.7 586.73 0.00 67.6
09/13/2018 10:00 4.58 47.7 586.73 0.00 64.8
09/13/2018 09:00 4.58 47.7 586.73 0.01 63.9
09/13/2018 08:00 4.58 47.7 586.73 0.00 62.5
09/13/2018 07:00 4.58 47.7 586.73 0.00 62.4
09/13/2018 06:00 4.58 47.7 586.71 0.00 62.5
09/13/2018 05:00 4.58 47.7 586.74 0.02 62.6
09/13/2018 04:00 4.58 47.7 586.73 0.00 63.1
09/13/2018 03:00 4.57 46.5 586.72 0.00 63.3
09/13/2018 02:00 4.57 46.5 586.73 0.00 63.0
09/13/2018 01:00 4.58 47.7 586.73 0.00 62.7
09/13/2018 00:00 4.58 47.7 586.73 0.00 62.4
09/12/2018 23:00 4.57 46.5 586.71 0.00 62.1
09/12/2018 22:00 4.58 47.7 586.73 0.00 62.7
09/12/2018 21:00 4.58 47.7 586.74 0.00 63.7
09/12/2018 20:00 4.58 47.7 586.73 0.00 65.5
09/12/2018 19:00 4.58 47.7 586.74 0.00 66.9
09/12/2018 18:00 4.58 47.7 586.73 0.00 67.0
09/12/2018 17:00 4.58 47.7 586.72 0.00 67.5
09/12/2018 16:00 4.58 47.7 586.74 0.00 67.5
09/12/2018 15:00 4.58 47.7 586.72 0.00 66.4
09/12/2018 14:00 4.58 47.7 586.73 0.00 66.3
09/12/2018 13:00 4.58 47.7 586.74 0.00 66.3
09/12/2018 12:00 4.58 47.7 586.73 0.00 66.6
09/12/2018 11:00 4.58 47.7 586.72 0.00 64.5
09/12/2018 10:00 4.58 47.7 586.74 0.00 63.2
09/12/2018 09:00 4.58 47.7 586.74 0.00 62.9
09/12/2018 08:00 4.58 47.7 586.72 0.00 63.3
09/12/2018 07:00 4.58 47.7 586.74 0.00 63.3
09/12/2018 06:00 4.58 47.7 586.74 0.00 63.6
09/12/2018 05:00 4.58 47.7 586.73 0.00 63.4
09/12/2018 04:00 4.58 47.7 586.74 0.00 63.6
09/12/2018 03:00 4.58 47.7 586.75 0.00 63.8
09/12/2018 02:00 4.58 47.7 586.74 0.00 63.8
09/12/2018 01:00 4.58 47.7 586.74 0.00 63.7
09/12/2018 00:00 4.58 47.7 586.74 0.00 63.8
09/11/2018 23:00 4.58 47.7 586.75 0.00 64.3
09/11/2018 22:00 4.58 47.7 586.72 0.00 64.7
09/11/2018 21:00 4.58 47.7 586.74 0.00 64.9
09/11/2018 20:00 4.58 47.7 586.73 0.00 65.3
09/11/2018 19:00 4.58 47.7 586.73 0.00 65.6
09/11/2018 18:00 4.58 47.7 586.73 0.00 66.6
09/11/2018 17:00 4.58 47.7 586.72 0.00 65.9
09/11/2018 16:00 4.58 47.7 586.73 0.02 64.5
09/11/2018 15:00 4.58 47.7 586.73 0.00 64.0
09/11/2018 14:00 4.58 47.7 586.71 0.00 62.7
09/11/2018 13:00 4.58 47.7 586.73 0.00 62.5
09/11/2018 12:00 4.58 47.7 586.74 0.01 61.1
09/11/2018 11:00 4.26 15.2 586.72 0.08 59.5
09/11/2018 10:00 4.26 15.2 586.70 0.00 58.2
09/11/2018 09:00 4.26 15.2 586.71 0.00 57.5
09/11/2018 08:00 4.26 15.2 586.70 0.01 57.0
09/11/2018 07:00 4.26 15.2 586.73 0.01 56.8
09/11/2018 06:00 4.26 15.2 586.70 0.22 57.2
09/11/2018 05:00 4.26 15.2 586.68 0.05 56.8
09/11/2018 04:00 4.26 15.2 586.70 0.11 56.5
09/11/2018 03:00 4.26 15.2 586.69 0.13 56.7
09/11/2018 02:00 4.26 15.2 586.69 0.07 56.7
09/11/2018 01:00 4.26 15.2 586.66 0.05 56.6
09/11/2018 00:00 4.26 15.2 586.66 0.03 56.5
09/10/2018 23:00 4.26 15.2 586.62 0.06 56.4
09/10/2018 22:00 4.26 15.2 586.68 0.11 56.4
09/10/2018 21:00 4.26 15.2 586.63 0.09 55.6
09/10/2018 20:00 4.26 15.2 586.62 0.04 56.4
09/10/2018 19:00 4.26 15.2 586.61 0.03 57.1
09/10/2018 18:00 4.26 15.2 586.63 0.01 57.5
09/10/2018 17:00 4.26 15.2 586.63 0.00 58.8
09/10/2018 16:00 4.26 15.2 586.62 0.00 59.9
09/10/2018 15:00 4.26 15.2 586.64 0.00 60.0
09/10/2018 14:00 4.26 15.2 586.64 0.00 58.8
09/10/2018 13:00 4.26 15.2 586.63 0.00 57.6
09/10/2018 12:00 4.26 15.2 586.63 0.00 56.0
09/10/2018 11:00 4.26 15.2 586.64 0.00 53.7
09/10/2018 10:00 4.26 15.2 586.64 0.00 50.6
09/10/2018 09:00 4.26 15.2 586.63 0.00 47.2
09/10/2018 08:00 4.26 15.2 586.64 0.00 45.3
09/10/2018 07:00 4.26 15.2 586.64 0.00 45.5
09/10/2018 06:00 4.26 15.2 586.62 0.00 45.4
09/10/2018 05:00 4.26 15.2 586.65 0.00 44.9
09/10/2018 04:00 4.26 15.2 586.66 0.00 45.4
09/10/2018 03:00 4.26 15.2 586.63 0.00 45.2
09/10/2018 02:00 4.26 15.2 586.64 0.00 46.9
09/10/2018 01:00 4.26 15.2 586.64 0.00 47.0
09/10/2018 00:00 4.26 15.2 586.65 0.00 48.4
09/09/2018 23:00 4.26 15.2 586.66 0.00 49.4
09/09/2018 22:00 4.26 15.2 586.66 0.00 50.0
09/09/2018 21:00 4.26 15.2 586.65 0.00 51.7
09/09/2018 20:00 4.26 15.2 586.66 0.00 54.8
09/09/2018 19:00 4.26 15.2 586.66 0.00 58.8
09/09/2018 18:00 4.26 15.2 586.66 0.00 60.2
09/09/2018 17:00 4.26 15.2 586.66 0.00 61.1
09/09/2018 16:00 4.26 15.2 586.67 0.00 60.4
09/09/2018 15:00 4.26 15.2 586.66 0.00 60.2
09/09/2018 14:00 4.26 15.2 586.67 0.00 59.1
09/09/2018 13:00 4.26 15.2 586.68 0.00 58.6
09/09/2018 12:00 4.26 15.2 586.67 0.00 56.9
09/09/2018 11:00 4.26 15.2 586.66 0.00 53.5
09/09/2018 10:00 4.27 16.0 586.66 0.00 49.2
09/09/2018 09:00 4.26 15.2 586.66 0.00 45.3
09/09/2018 08:00 4.26 15.2 586.67 0.00 43.3
09/09/2018 07:00 4.26 15.2 586.66 0.00 42.9
09/09/2018 06:00 4.26 15.2 586.67 0.00 44.2
09/09/2018 05:00 4.26 15.2 586.66 0.00 44.4
09/09/2018 04:00 4.26 15.2 586.67 0.00 45.5
09/09/2018 03:00 4.26 15.2 586.68 0.00 46.4
09/09/2018 02:00 4.26 15.2 586.70 0.00 49.5
09/09/2018 01:00 4.26 15.2 586.69 0.00 52.7
09/09/2018 00:00 4.26 15.3 586.69 0.00 52.8
09/08/2018 23:00 4.26 15.3 586.69 0.00 52.8
09/08/2018 22:00 4.26 15.3 586.69 0.00 52.9
09/08/2018 21:00 4.26 15.3 586.70 0.00 53.0
09/08/2018 20:00 4.26 15.3 586.70 0.00 53.1
09/08/2018 19:00 4.26 15.4 586.70 0.00 53.1
09/08/2018 18:00 4.26 15.4 586.70 0.00 53.2
09/08/2018 17:00 4.26 15.4 586.70 0.00 53.3
09/08/2018 16:00 4.26 15.4 586.70 0.00 53.3
09/08/2018 15:00 4.26 15.4 586.71 0.00 53.4
09/08/2018 14:00 4.26 15.4 586.71 0.00 53.5
09/08/2018 13:00 4.26 15.5 586.71 0.00 53.5
09/08/2018 12:00 4.26 15.5 586.71 0.00 53.6
09/08/2018 11:00 4.26 15.5 586.71 0.00 53.7
09/08/2018 10:00 4.26 15.5 586.71 0.00 53.8
09/08/2018 09:00 4.26 15.5 586.71 0.00 53.8
09/08/2018 08:00 4.26 15.6 586.72 0.00 53.9
09/08/2018 07:00 4.26 15.6 586.72 0.00 54.0
09/08/2018 06:00 4.26 15.6 586.72 0.00 54.0
09/08/2018 05:00 4.26 15.6 586.72 0.00 54.1
09/08/2018 04:00 4.27 15.6 586.72 0.00 54.2
09/08/2018 03:00 4.27 15.7 586.72 0.00 54.3
09/08/2018 02:00 4.27 15.7 586.72 0.00 54.3
09/08/2018 01:00 4.27 15.7 586.73 0.00 54.4
09/08/2018 00:00 4.27 15.7 586.73 0.00 54.5
09/07/2018 23:00 4.27 15.7 586.73 0.00 54.5
09/07/2018 22:00 4.27 15.8 586.73 0.00 54.6
09/07/2018 21:00 4.27 15.8 586.73 0.00 54.7
09/07/2018 20:00 4.27 15.8 586.73 0.00 54.8
09/07/2018 19:00 4.27 15.8 586.74 0.00 54.8
09/07/2018 18:00 4.27 15.8 586.74 0.00 54.9
09/07/2018 17:00 4.27 15.9 586.74 0.00 55.0
09/07/2018 16:00 4.27 15.9 586.74 0.00 55.0
09/07/2018 15:00 4.27 15.9 586.74 0.00 55.1
09/07/2018 14:00 4.27 15.9 586.74 0.00 55.2
09/07/2018 13:00 4.27 15.9 586.74 0.00 55.2
09/07/2018 12:00 4.27 15.9 586.75 0.00 55.3
09/07/2018 11:00 4.27 16.0 586.75 0.00 55.4
09/07/2018 10:00 4.27 16.0 586.75 0.00 55.5
09/07/2018 09:00 4.27 16.0 586.75 0.00 55.5
09/07/2018 08:00 4.26 15.2 586.75 0.00 54.6
09/07/2018 07:00 4.27 16.0 586.74 0.00 54.8
09/07/2018 06:00 4.27 16.0 586.75 0.00 55.1
09/07/2018 05:00 4.27 16.0 586.75 0.00 56.5
09/07/2018 04:00 4.27 16.0 586.75 0.00 57.2
09/07/2018 03:00 4.27 16.0 586.75 0.00 60.4
09/07/2018 02:00 4.27 16.0 586.77 0.00 62.8
09/07/2018 01:00 4.27 16.0 586.80 0.00 66.8
09/07/2018 00:00 4.27 16.0 586.76 0.00 67.3
09/06/2018 23:00 4.27 16.0 586.77 0.00 66.1
09/06/2018 22:00 4.27 16.0 586.80 0.00 68.0
09/06/2018 21:00 4.27 16.0 586.78 0.00 68.8
09/06/2018 20:00 4.27 16.0 586.77 0.00 73.0
09/06/2018 19:00 4.30 18.4 586.80 0.00 75.5
09/06/2018 18:00 4.30 18.4 586.79 0.00 76.5
09/06/2018 17:00 4.30 18.4 586.75 0.00 76.9
09/06/2018 16:00 4.31 19.2 586.79 0.02 71.1
09/06/2018 15:00 4.31 19.2 586.79 0.00 74.9
09/06/2018 14:00 4.31 19.2 586.82 0.01 76.4
09/06/2018 13:00 4.31 19.2 586.84 0.00 84.0
09/06/2018 12:00 4.31 19.2 586.78 0.00 84.5
09/06/2018 11:00 4.31 19.2 586.79 0.00 82.4
09/06/2018 10:00 4.31 19.2 586.78 0.00 76.3
09/06/2018 09:00 4.31 19.2 586.77 0.00 71.8
09/06/2018 08:00 4.31 19.2 586.80 0.00 69.8
09/06/2018 07:00 4.31 19.2 586.75 0.00 70.1
09/06/2018 06:00 4.31 19.2 586.76 0.00 70.9
09/06/2018 05:00 4.31 19.2 586.79 0.00 71.3
09/06/2018 04:00 4.31 19.2 586.75 0.00 71.4
09/06/2018 03:00 4.31 19.2 586.79 0.00 71.8
09/06/2018 02:00 4.31 19.2 586.78 0.00 71.4
09/06/2018 01:00 4.31 19.2 586.78 0.00 70.8
09/06/2018 00:00 4.31 19.2 586.79 0.00 71.6
09/05/2018 23:00 4.31 19.2 586.77 0.00 72.1
09/05/2018 22:00 4.31 19.2 586.77 0.00 73.2
09/05/2018 21:00 4.31 19.2 586.78 0.00 74.7
09/05/2018 20:00 4.31 19.2 586.79 0.00 76.9
09/05/2018 19:00 4.31 19.2 586.79 0.00 80.4
09/05/2018 18:00 4.31 19.2 586.78 0.00 85.1
09/05/2018 17:00 4.31 19.2 586.78 0.00 87.7
09/05/2018 16:00 4.31 19.2 586.78 0.00 87.0
09/05/2018 15:00 4.31 19.2 586.79 0.00 86.1
09/05/2018 14:00 4.31 19.2 586.79 0.00 84.8
09/05/2018 13:00 4.31 19.2 586.79 0.00 81.8
09/05/2018 12:00 4.31 19.2 586.79 0.00 78.8
09/05/2018 11:00 4.31 19.2 586.79 0.00 75.9
09/05/2018 10:00 4.31 19.2 586.79 0.00 72.9
09/05/2018 09:00 4.31 19.2 586.79 0.00 69.9
09/05/2018 08:00 4.31 19.2 586.79 0.00 67.0
09/05/2018 07:00 4.31 19.2 586.79 0.00 64.0
09/05/2018 06:00 4.31 19.2 586.79 0.00 61.0
09/05/2018 05:00 4.31 19.2 586.79 0.00 61.4
09/05/2018 04:00 4.31 19.2 586.80 0.00 61.6
09/05/2018 03:00 4.31 19.2 586.80 0.00 62.6
09/05/2018 02:00 4.31 19.2 586.80 0.00 63.9
09/05/2018 01:00 4.31 19.2 586.80 0.00 64.2
09/05/2018 00:00 4.31 19.2 586.81 0.00 65.7
09/04/2018 23:00 4.31 19.2 586.80 0.00 66.7
09/04/2018 22:00 -- -- -- -- --
09/04/2018 21:00 -- -- -- -- --
09/04/2018 20:00 -- -- -- -- --
09/04/2018 19:00 -- -- -- -- --
09/04/2018 18:00 -- -- -- -- --
09/04/2018 17:00 -- -- -- -- --
09/04/2018 16:00 -- -- -- -- --